South Lake Tahoe, CA

2:45 AM PDT on June 23, 2017 (GMT -0700)
Lake Tahoe

Weather History for KTVL - April, 2013

Change the Weather History Date:

Sunday, April 7, 2013

  Actual Average Record
Temperature  
Mean Temperature 43 °F 39 °F  
Max Temperature 54 °F 52 °F 72 °F (1988)
Min Temperature 32 °F 25 °F -1 °F (1975)
Degree Days  
Heating Degree Days 22 26  
Month to date heating degree days 152 188  
Since 1 July heating degree days 5934 6340  
Cooling Degree Days 0 0  
Month to date cooling degree days 0 0  
Year to date cooling degree days 0 0  
Moisture  
Dew Point 28 °F    
Average Humidity 59    
Maximum Humidity 82    
Minimum Humidity 35    
Precipitation  
Precipitation 0.05 in - 1.85 in (1935)
Month to date precipitation 0.24  
Year to date precipitation 2.48  
Sea Level Pressure  
Sea Level Pressure 29.89 in    
Wind  
Wind Speed 15 mph (SSW)    
Max Wind Speed 29 mph    
Max Gust Speed 41 mph    
Visibility 8 miles    
Events Rain , Snow    
T = Trace of Precipitation, MM = Missing Value Source: NWS Daily Summary

Daily Weather History Graph

Daily Weather History Graph

Search for Another Location

Airport or City:

Trip Planner

Search our weather history database for the weather conditions in past years. The results will help you decide how hot, cold, wet, or windy it might be!

Date:

Astronomy

Apr. 07, 2013 Rise Set
Actual Time 6:34 AM PDT 7:29 PM PDT
Civil Twilight 6:07 AM PDT 7:56 PM PDT
Nautical Twilight 5:35 AM PDT 8:29 PM PDT
Astronomical Twilight 5:02 AM PDT 9:02 PM PDT
Moon 4:53 AM PDT (4/7) 5:08 PM PDT (4/7)
Length of Visible Light 13h 49m
Length of Day
12h 54m
Waning Crescent, 7% of the Moon is Illuminated
Apr 7
Waning Crescent
Apr 10
New
Apr 18
First Quarter
Apr 25
Full
May 2
Last Quarter

Hourly Weather History & Observations

Time (PDT) Temp. Windchill Dew Point Humidity Pressure Visibility Wind Dir Wind Speed Gust Speed Precip Events Conditions
12:53 AM 43.0 °F 36.4 °F 28.9 °F 58% 30.05 in 10.0 mi South 12.7 mph - N/A   Overcast
1:53 AM 42.1 °F 34.5 °F 30.0 °F 62% 30.03 in 10.0 mi SSE 15.0 mph - 0.00 in Rain Light Rain
2:53 AM 42.1 °F 34.9 °F 28.9 °F 60% 30.01 in 10.0 mi SSE 13.8 mph 23.0 mph 0.00 in   Overcast
3:53 AM 39.9 °F 31.4 °F 32.0 °F 73% 30.01 in 10.0 mi South 16.1 mph - 0.00 in Rain Light Rain
4:53 AM 41.0 °F 32.5 °F 30.9 °F 67% 30.00 in 10.0 mi South 17.3 mph 23.0 mph 0.00 in   Overcast
5:00 AM 41.0 °F 32.5 °F 30.2 °F 65% 30.08 in 10.0 mi SSW 17.3 mph 25.3 mph N/A   Overcast
5:28 AM 39.2 °F 31.2 °F 32.0 °F 75% 30.07 in 10.0 mi SSW 13.8 mph 24.2 mph N/A   Overcast
5:35 AM 39.2 °F 30.5 °F 32.0 °F 75% 30.07 in 10.0 mi South 16.1 mph 21.9 mph 0.00 in Rain Light Rain
5:42 AM 39.2 °F 31.2 °F 32.0 °F 75% 30.08 in 10.0 mi South 13.8 mph 21.9 mph 0.00 in   Overcast
5:53 AM 39.9 °F 31.4 °F 30.9 °F 70% 30.01 in 10.0 mi SSW 16.1 mph 21.9 mph 0.00 in   Mostly Cloudy
6:17 AM 41.0 °F 34.3 °F 30.2 °F 65% 30.08 in 10.0 mi SSW 11.5 mph 16.1 mph N/A   Mostly Cloudy
6:53 AM 39.9 °F 32.5 °F 30.9 °F 70% 30.02 in 10.0 mi South 12.7 mph - 0.00 in Rain Light Rain
7:06 AM 39.2 °F 31.2 °F 30.2 °F 70% 30.08 in 10.0 mi SSW 13.8 mph - 0.00 in   Overcast
7:27 AM 39.2 °F 33.0 °F 30.2 °F 70% 30.09 in 10.0 mi SSW 9.2 mph - 0.00 in   Scattered Clouds
7:53 AM 41.0 °F 32.2 °F 30.9 °F 67% 30.02 in 10.0 mi South 18.4 mph 23.0 mph 0.00 in   Clear
8:53 AM 44.1 °F 36.8 °F 28.0 °F 53% 30.01 in 10.0 mi South 16.1 mph - N/A   Clear
9:53 AM 46.0 °F 39.6 °F 28.0 °F 50% 29.98 in 10.0 mi South 15.0 mph 24.2 mph N/A   Clear
10:53 AM 50.0 °F - 26.1 °F 39% 29.98 in 10.0 mi South 16.1 mph 23.0 mph N/A   Clear
11:53 AM 51.1 °F - 28.0 °F 41% 29.96 in 10.0 mi SSW 11.5 mph 21.9 mph N/A   Clear
12:53 PM 53.1 °F - 27.0 °F 37% 29.91 in 10.0 mi SSW 17.3 mph 26.5 mph N/A   Clear
1:53 PM 53.1 °F - 27.0 °F 37% 29.87 in 10.0 mi SSW 17.3 mph 34.5 mph N/A   Clear
2:53 PM 51.1 °F - 27.0 °F 39% 29.84 in 10.0 mi SSW 16.1 mph 34.5 mph N/A   Clear
3:53 PM 51.1 °F - 26.1 °F 38% 29.83 in 10.0 mi SSW 13.8 mph 34.5 mph N/A   Clear
4:53 PM 48.0 °F - 26.1 °F 42% 29.82 in 10.0 mi SSW 24.2 mph 39.1 mph N/A   Clear
5:53 PM 46.0 °F 38.3 °F 27.0 °F 47% 29.81 in 10.0 mi SSW 20.7 mph 32.2 mph N/A   Clear
6:53 PM 45.0 °F 37.1 °F 26.1 °F 48% 29.77 in 10.0 mi SSW 19.6 mph 28.8 mph N/A   Overcast
7:53 PM 42.1 °F 35.2 °F 24.1 °F 49% 29.75 in 10.0 mi SW 12.7 mph 33.4 mph N/A   Mostly Cloudy
8:30 PM 39.2 °F 32.0 °F 26.6 °F 61% 29.80 in 3.0 mi SW 11.5 mph 36.8 mph 0.01 in   Haze
8:40 PM 39.2 °F 30.8 °F 24.8 °F 56% 29.80 in 10.0 mi SW 15.0 mph 26.5 mph 0.01 in Rain Light Rain
8:53 PM 39.0 °F 30.3 °F 24.1 °F 55% 29.72 in 10.0 mi SSW 16.1 mph 28.8 mph 0.01 in   Mostly Cloudy
9:53 PM 37.0 °F 27.4 °F 24.1 °F 59% 29.68 in 5.0 mi South 17.3 mph 35.7 mph 0.01 in Snow Light Snow
10:25 PM 35.6 °F 24.2 °F 26.6 °F 70% 29.74 in 2.5 mi SSW 21.9 mph 33.4 mph 0.00 in Snow Light Snow
10:32 PM 37.4 °F 28.9 °F 24.8 °F 60% 29.73 in 5.0 mi SSW 13.8 mph 35.7 mph 0.00 in Snow Light Snow
10:53 PM 37.0 °F 25.9 °F 25.0 °F 62% 29.65 in 8.0 mi SSW 23.0 mph 33.4 mph 0.00 in Snow Light Snow
11:02 PM 35.6 °F 25.5 °F 24.8 °F 65% 29.71 in 4.0 mi SSW 17.3 mph 36.8 mph 0.00 in Snow Light Snow
11:08 PM 35.6 °F 25.5 °F 26.6 °F 70% 29.71 in 1.8 mi SSW 17.3 mph 32.2 mph 0.00 in Snow Light Snow
11:20 PM 35.6 °F 26.6 °F 26.6 °F 70% 29.69 in 3.0 mi South 13.8 mph 23.0 mph 0.00 in Snow Light Snow
11:36 PM 33.8 °F 23.9 °F 26.6 °F 75% 29.68 in 1.8 mi SSW 15.0 mph 20.7 mph 0.00 in Snow Light Snow
11:53 PM 34.0 °F 26.6 °F 28.0 °F 79% 29.61 in 0.8 mi SSW 9.2 mph 20.7 mph 0.01 in Snow Light Snow
11:57 PM 33.8 °F 25.3 °F 28.4 °F 81% 29.68 in 0.5 mi SSW 11.5 mph 20.7 mph 0.00 in Snow Snow